Home   Weather   Kunming   Past weeks

Flag for China Past Weather in Kunming, Yunnan, China — Yesterday and Last 2 Weeks

Now
75 °F

Passing clouds.


Feels Like: 77 °F
Forecast: 54 / 73 °F
Wind: 22 mph from Southwest

Location: Kunming Airport

Current Time: Apr 29, 2017 at 5:44:08 pm

Latest Report: Apr 29, 2017 at 5:00 pm


Visibility: N/A

Pressure: 30.04 "Hg (24.12 "Hg at 1909m altitude)

Humidity: 31%

Dew Point: 43 °F

Location of KunmingLocation

Past Weather in Kunming — Graph

°F

Kunming Temperature Yesterday

Maximum temperature yesterday: 68 °F (at 3:00 pm)
Minimum temperature yesterday: 46 °F (at 12:00 am)
Average temperature yesterday: 55 °F

High & Low Weather Summary for the Past Weeks

 TemperatureHumidityPressure
High77 °F (Apr 29, 4:00 pm)100% (Apr 17, 4:00 am)30.30 "Hg (Apr 17, 4:00 am)
Low45 °F (Apr 22, 2:00 am)29% (Apr 14, 4:00 pm)29.92 "Hg (Apr 19, 3:00 pm)
Average57 °F80%30.11 "Hg
* Reported Apr 14 4:00 pm — Apr 29 4:00 pm, Kunming, Weather by CustomWeather, © 2017

Note: Actual official high and low records may vary slightly from our data, if they occured in-between our weather recording intervals... More about our weather records

Advertising

Kunming Weather History for the Previous 24 Hours

Scroll right to see more
 ConditionsComfort  
Time TempWeatherWind HumidityBarometerVisibility
4:00 pm
Sat, Apr 29
77 °FPassing clouds.20 mph32%30.07 "HgN/A
3:00 pm75 °FPassing clouds.20 mph31%30.09 "HgN/A
2:00 pm75 °FPassing clouds.20 mph29%30.12 "HgN/A
1:00 pm73 °FPassing clouds.22 mph29%30.15 "HgN/A
12:00 pm70 °FPassing clouds.20 mph43%30.18 "HgN/A
11:00 am64 °FScattered clouds.15 mph60%30.21 "HgN/A
10:00 am63 °FScattered clouds.20 mph73%30.21 "HgN/A
9:00 am59 °FFog.17 mph82%30.21 "Hg3 mi
8:00 am57 °FFog.10 mph94%30.18 "Hg2 mi
7:00 am54 °FFog.6 mph100%30.18 "Hg2 mi
6:00 am52 °FFog.1 mph100%30.18 "Hg2 mi
5:00 am52 °FFog.3 mph100%30.15 "Hg2 mi
4:00 am54 °FFog.3 mph94%30.15 "Hg2 mi
3:00 am54 °FFog.6 mph94%30.18 "Hg3 mi
2:00 am54 °FFog.8 mph94%30.18 "Hg3 mi
1:00 am54 °FFog.8 mph100%30.18 "Hg2 mi
12:00 am54 °FFog.8 mph100%30.21 "Hg2 mi
11:00 pm
Fri, Apr 28
55 °FFog.3 mph94%30.18 "Hg2 mi
10:00 pm57 °FFog.3 mph94%30.15 "Hg2 mi
9:00 pm59 °FPartly cloudy.3 mph88%30.15 "Hg4 mi
8:00 pm59 °FPartly cloudy.3 mph88%30.12 "Hg4 mi
7:00 pm61 °FMore clouds than sun.8 mph83%30.09 "Hg4 mi
6:00 pm61 °FSprinkles. More clouds than sun.6 mph83%30.09 "Hg5 mi
5:00 pm68 °FBroken clouds.8 mph56%30.09 "HgN/A
Weather by CustomWeather, © 2017

See weather overviewHow to use our weather pages